Find Starlink 5902

NORAD ID: 55998 Int'l Des: 2023-042 Owner: SPXS Country: US Constellation: starlink operational
LEOCIRCULAR

現在のビュー

3D地球を読み込み中...

About Starlink 5902

Starlink 5902 (NORAD 55998) is a starlink constellation satellite (v1.5) launched Mar 24, 2023 by SPXS of US. It operates in LEO, CIRCULAR orbit with a mass of 305.00 kg.

Starlink 5902について

説明を読み込み中...

次回通過

Passes for default location (London). Set your location on the main map for personalized predictions.

高度履歴

Loading altitude history...

軌道要素

1 55998U 23042N 26166.84710899 .00000879 00000-0 41454-4 0 9990
2 55998 43.0051 225.0662 0001012 267.3073 92.7663 15.27590223177886
Epoch: Jun 15, 2026 • Age: 15 hours

現在のステータス

高度 494.8 km
速度 7.62 km/s
衛星直下点 -40.95°S, 73.41°E
打ち上げ日 Mar 24, 2023
運用期間 3.2 years
タイプ internet

技術仕様

分類 Payload
質量 305.00 kg
乾燥質量 290.00 kg
総質量 305.00 kg
長さ 0.20 m
直径 2.80 m
スパン 9.00 m
形状 Box + pan
製造者 SPXS
バスタイプ Starlink
フェーズステータス In Orbit
所有者/国 SPXS/US

Most Searched